Location: Street
(51.1247°N, 2.7429°W)
Time: 10:31:38
(UTC+00:00)

SL-16 DEB - Visible Passes

Search period start: 30 November 2023 00:00
Search period end: 10 December 2023 00:00
Orbit: 562 x 601 km, 70.9° (Epoch: 25 November)

Date Brightness Start Highest point End Pass type
(mag) Time Alt. Az. Time Alt. Az. Time Alt. Az.
30 Nov ? 17:18:52 10° WNW 17:22:03 21° WSW 17:25:13 10° SSW visible
01 Dec ? 05:49:28 10° SE 05:51:19 13° E 05:53:09 10° ENE visible
01 Dec ? 17:24:01 10° WNW 17:26:21 15° WSW 17:28:42 10° SW visible
02 Dec ? 05:52:38 10° SSE 05:55:30 18° ESE 05:58:24 10° ENE visible
03 Dec ? 05:56:08 10° SSE 05:59:35 26° ESE 06:03:04 10° NE visible
04 Dec ? 05:59:42 10° S 06:03:31 37° ESE 06:07:23 10° NE visible
05 Dec ? 06:03:17 10° SSW 06:07:20 54° ESE 06:11:25 10° NE visible
06 Dec ? 06:06:52 10° SSW 06:11:00 79° ESE 06:15:11 10° NNE visible
07 Dec ? 04:34:34 10° SE 04:36:50 15° ESE 04:39:08 10° ENE visible
07 Dec ? 06:10:25 10° SW 06:14:33 74° WNW 06:18:44 10° NNE visible
08 Dec ? 04:37:13 11° SSE 04:40:03 20° ESE 04:43:08 10° ENE visible
08 Dec ? 06:13:55 10° SW 06:17:58 52° NW 06:22:04 10° NNE visible
09 Dec ? 04:42:39 28° ESE 04:43:07 28° ESE 04:46:42 10° NE visible
09 Dec ? 06:18:57 21° WSW 06:21:15 38° NW 06:25:11 10° NNE visible
